Location: Austin
(30.3000°N, 97.7500°W)
Time: 00:48:06
(UTC-05:00)

Cosmos 2123 Rocket - Pass Details

Date: 06 May 2026
Orbit: 961 x 990 km, 82.9° (Epoch: 13 May)

Event Time Altitude Azimuth Distance (km) Brightness Sun altitude
Rises 20:31:35 0° 358° (N) 3,703 7.4 -4.7°
Reaches altitude 10° 20:34:09 10° 2° (N) 2,753 6.7 -5.2°
Maximum altitude 20:40:25 63° 83° (E) 1,095 4.1 -6.5°
Drops below altitude 10° 20:46:38 10° 164° (SSE) 2,737 6.0 -7.7°
Sets 20:49:10 0° 167° (SSE) 3,680 6.7 -8.2°
